ARIANE 5 R/B - Orbit

View from above orbital plane
View from above orbital plane
View from above satellite
View from above satellite

Ground track
Ground track

The orbit data is extracted from the following two-line orbital elements,

1 29646U 06054D   13169.76962671  .00000547  00000-0  26723-3 0  4822
2 29646 002.7778 278.3058 7166686 062.4609 351.4687 02.40772704 55704
Epoch (UTC): 18 June 2013 18:28:15
Eccentricity: 0.7166686
inclination: 2.7778°
perigee height: 284 km
apogee height: 33987 km
right ascension of ascending node: 278.3058°
argument of perigee: 62.4609°
revolutions per day: 2.40772704
mean anomaly at epoch: 351.4687°
orbit number at epoch: 5570

The dashed part of the orbit path shows where the satellite is in the earth's shadow,  

Developed and maintained by Chris Peat, Heavens-Above GmbH. Please read the updated FAQ before sending e-mail. Imprint. DLR